AST,Max TemperatureF,Mean TemperatureF,Min TemperatureF,Max Dew PointF,MeanDew PointF,Min DewpointF,Max Humidity, Mean Humidity, Min Humidity, Max Sea Level PressureIn, Mean Sea Level PressureIn, Min Sea Level PressureIn, Max VisibilityMiles, Mean VisibilityMiles, Min VisibilityMiles, Max Wind SpeedMPH, Mean Wind SpeedMPH, Max Gust SpeedMPH,PrecipitationIn, CloudCover, Events, WindDirDegrees
2013-3-1,83,70,58,63,57,46,95,70,27,30.07,30.03,29.98,6,6,4,18,8,22,0.00,0,,107
2013-3-2,85,74,63,65,58,48,86,61,28,30.09,30.04,29.99,6,6,4,18,9,,0.00,0,,110
2013-3-3,86,76,65,66,57,49,88,58,27,30.13,30.07,30.02,6,6,6,14,7,,0.00,0,,98
2013-3-4,87,74,61,61,53,46,72,50,25,30.11,30.02,29.97,6,6,6,9,3,,0.00,0,,127
2013-3-5,93,78,62,64,54,43,89,52,17,29.98,29.90,29.82,6,6,6,18,8,,0.00,0,,136
2013-3-6,95,80,66,65,48,23,77,42,7,29.92,29.83,29.76,6,6,6,21,9,,0.00,0,,147
2013-3-7,78,70,60,64,52,42,78,48,32,30.10,30.00,29.87,6,3,1,33,24,39,0.00,2,,340
2013-3-8,72,64,55,46,42,37,67,48,31,30.18,30.12,30.07,6,6,6,24,14,30,0.00,0,,330
2013-3-9,79,66,52,58,47,28,78,56,15,30.12,30.02,29.93,6,6,6,14,9,,0.00,1,,351
2013-3-10,82,72,62,64,56,48,89,56,29,29.93,29.84,29.78,6,6,6,18,8,,0.00,0,Rain,116
2013-3-11,82,72,62,59,48,32,64,45,18,29.99,29.88,29.78,6,6,5,32,15,36,0.00,1,Rain,331
2013-3-12,80,69,58,52,40,32,74,34,17,30.06,30.01,29.97,6,5,1,33,20,39,0.00,1,,327
2013-3-13,83,70,57,50,43,39,74,41,22,30.08,30.00,29.96,6,6,6,28,13,34,0.00,0,,311
2013-3-14,89,73,57,51,47,43,73,42,20,30.04,29.98,29.94,6,6,6,16,8,22,0.00,1,,349
2013-3-15,90,74,58,51,44,32,75,40,12,30.06,30.01,29.96,6,6,6,13,7,,0.00,1,,335
2013-3-16,88,72,56,58,46,28,65,43,11,30.05,29.99,29.95,6,6,4,13,5,20,0.00,0,,122
2013-3-17,94,80,65,65,53,25,90,50,8,29.97,29.91,29.85,6,6,6,17,9,,0.00,0,,117
2013-3-18,90,78,66,64,52,39,86,44,17,29.93,29.84,29.78,6,6,6,17,9,22,0.00,0,,115
2013-3-19,88,78,66,62,56,50,76,51,29,29.92,29.84,29.76,6,6,6,20,9,17,0.00,1,,19
2013-3-20,86,75,64,59,55,48,77,54,28,29.93,29.89,29.84,6,6,6,20,12,24,0.00,1,,11
2013-3-21,79,72,64,63,59,56,78,67,52,29.96,29.92,29.86,6,6,6,24,15,29,0.05,1,Rain-Thunderstorm,355
2013-3-22,82,72,59,58,43,30,85,44,15,29.97,29.91,29.87,6,6,6,24,13,29,0.00,0,,326
2013-3-23,86,70,54,63,45,16,83,47,7,29.91,29.85,29.81,6,6,6,17,7,,0.03,1,Rain-Thunderstorm,72
2013-3-24,85,75,65,63,59,51,88,63,36,29.93,29.87,29.80,6,6,6,16,8,31,0.01,1,Rain,26
2013-3-25,80,72,61,63,54,42,76,55,37,30.04,29.98,29.90,6,6,4,22,10,26,0.00,2,,340
2013-3-26,79,68,56,49,41,29,72,41,16,30.03,29.97,29.92,6,6,6,23,13,31,0.00,0,,305
2013-3-27,86,70,55,51,41,25,82,42,11,29.98,29.93,29.89,6,6,6,12,9,,0.00,0,,287
2013-3-28,89,72,55,53,41,24,82,39,10,29.99,29.91,29.86,6,6,6,14,6,,0.00,1,,191
2013-3-29,92,78,63,54,43,27,62,34,10,29.98,29.92,29.87,6,6,6,14,3,,0.00,0,,91
2013-3-30,93,79,65,49,40,33,53,26,12,29.98,29.91,29.86,6,6,5,12,4,18,0.00,1,Rain,13
2013-3-31,95,81,67,55,42,35,45,28,12,29.96,29.91,29.88,6,6,6,23,9,29,0.00,1,,322